FW0960 Weather Reports


time (UTC)temp
F
wind
direction
speed
knots
gust
knots
rain 1hr
in
rain 24hr
in
rain mn
in
humidity
%
barometer
mb
20260906155440 76 194 0.0 0.0 0.00 0.00 0.00 78 1015.2
20260906154942 76 194 0.0 0.0 0.00 0.00 0.00 77 1015.2
20260906154440 76 194 0.0 0.0 0.00 0.00 0.00 78 1015.2
20260906153937 76 192 0.0 0.0 0.00 0.00 0.00 77 1015.2
20260906153442 76 192 0.0 0.0 0.00 0.00 0.00 78 1015.3
20260906152936 76 192 0.0 0.0 0.00 0.00 0.00 77 1015.2
20260906152434 76 188 0.0 0.0 0.00 0.00 0.00 76 1015.2
20260906151932 76 194 0.0 0.0 0.00 0.00 0.00 78 1015.3
20260906151435 75 194 0.0 0.0 0.00 0.00 0.00 77 1015.2
20260906145920 75 196 0.0 0.0 0.00 0.00 0.00 79 1015.2
20260906144917 75 197 0.0 0.0 0.00 0.00 0.00 77 1015.1
20260906144416 75 199 0.0 0.0 0.00 0.00 0.00 78 1015.1
20260906143917 75 196 0.0 0.0 0.00 0.00 0.00 80 1015.0
20260906143411 74 191 0.0 0.0 0.00 0.00 0.00 80 1015.1
20260906142415 74 194 0.0 0.0 0.00 0.00 0.00 82 1015.1
20260906141912 74 190 0.0 0.0 0.00 0.00 0.00 81 1014.9
20260906141404 74 190 0.0 0.0 0.00 0.00 0.00 82 1014.9
20260906140405 73 197 0.0 0.0 0.00 0.00 0.00 83 1014.8
20260906135907 73 194 0.0 0.0 0.00 0.00 0.00 82 1014.7
20260906135404 73 192 0.0 0.0 0.00 0.00 0.00 86 1014.7
20260906134910 73 192 0.0 0.0 0.00 0.00 0.00 85 1014.8
20260906134407 72 192 0.0 0.0 0.00 0.00 0.00 86 1014.7
20260906133904 72 193 0.0 0.0 0.00 0.00 0.00 87 1014.8
20260906132903 72 193 0.0 0.0 0.00 0.00 0.00 87 1014.7
20260906132406 72 193 0.0 0.0 0.00 0.00 0.00 88 1014.7
20260906131855 72 196 0.0 0.0 0.00 0.00 0.00 88 1014.7
20260906130844 71 192 0.0 0.0 0.00 0.00 0.00 87 1014.7
20260906130339 71 191 0.0 0.0 0.00 0.00 0.00 88 1014.5
20260906125848 71 192 0.0 0.0 0.00 0.00 0.00 89 1014.6
20260906125339 71 192 0.0 0.0 0.00 0.00 0.00 90 1014.5
20260906124335 71 192 0.0 0.0 0.00 0.00 0.00 90 1014.4
20260906123832 71 192 0.0 0.0 0.00 0.00 0.00 91 1014.5
20260906123334 70 192 0.0 0.0 0.00 0.00 0.00 92 1014.5
20260906122832 70 192 0.0 0.0 0.00 0.00 0.00 92 1014.4
20260906122333 70 192 0.0 0.0 0.00 0.00 0.00 93 1014.3
20260906121330 69 192 0.0 0.0 0.00 0.00 0.00 96 1014.2
20260906120832 69 192 0.0 0.0 0.00 0.00 0.00 97 1014.3
20260906120332 68 192 0.0 0.0 0.00 0.00 0.00 98 1014.2
20260906115834 67 192 0.0 0.0 0.00 0.00 0.00 98 1014.2
20260906115334 67 192 0.0 0.0 0.00 0.00 0.00 98 1014.1
20260906114837 66 192 0.0 0.0 0.00 0.00 0.00 97 1014.1
20260906114340 66 192 0.0 0.0 0.00 0.00 0.00 97 1014.1
20260906113339 66 192 0.0 0.0 0.00 0.00 0.00 97 1013.9
20260906112829 65 192 0.0 0.0 0.00 0.00 0.00 98 1013.9
20260906111828 65 192 0.0 0.0 0.00 0.00 0.00 97 1013.7
20260906111326 65 192 0.0 0.0 0.00 0.00 0.00 97 1013.6
20260906110842 65 192 0.0 0.0 0.00 0.00 0.00 97 1013.4
20260906110322 65 192 0.0 0.0 0.00 0.00 0.00 97 1013.4
20260906104817 65 192 0.0 0.0 0.00 0.00 0.00 97 1013.2
20260906104318 65 192 0.0 0.0 0.00 0.00 0.00 97 1013.2
20260906103307 65 192 0.0 0.0 0.00 0.00 0.00 97 1013.0
20260906102808 65 192 0.0 0.0 0.00 0.00 0.00 97 1012.9
20260906101803 65 192 0.0 0.0 0.00 0.00 0.00 97 1012.7
20260906101306 65 192 0.0 0.0 0.00 0.00 0.00 96 1012.7
20260906100802 65 192 0.0 0.0 0.00 0.00 0.00 96 1012.6
20260906100303 65 192 0.0 0.0 0.00 0.00 0.00 97 1012.7
20260906095806 65 192 0.0 0.0 0.00 0.00 0.00 97 1012.6
20260906095306 65 192 0.0 0.0 0.00 0.00 0.00 97 1012.7
20260906094803 65 192 0.0 0.0 0.00 0.00 0.00 97 1012.5
20260906094305 65 192 0.0 0.0 0.00 0.00 0.00 97 1012.5
20260906093800 65 192 0.0 0.0 0.00 0.00 0.00 96 1012.5
20260906093300 65 192 0.0 0.0 0.00 0.00 0.00 96 1012.5
20260906092252 65 192 0.0 0.0 0.00 0.00 0.00 96 1012.4
20260906091746 65 192 0.0 0.0 0.00 0.00 0.00 96 1012.3
20260906090747 65 192 0.0 0.0 0.00 0.00 0.00 96 1012.2
20260906090246 66 192 0.0 0.0 0.00 0.00 0.00 96 1012.3
20260906085801 66 192 0.0 0.0 0.00 0.00 0.00 96 1012.2
20260906084747 66 192 0.0 0.0 0.00 0.00 0.00 96 1012.1
20260906084244 66 192 0.0 0.0 0.00 0.00 0.00 96 1012.0
20260906083744 66 192 0.0 0.0 0.00 0.00 0.00 96 1012.0
20260906082734 66 192 0.0 0.0 0.00 0.00 0.00 96 1012.0
20260906082234 66 192 0.0 0.0 0.00 0.00 0.00 96 1012.0
20260906081741 66 192 0.0 0.0 0.00 0.00 0.00 96 1011.9
20260906080737 66 192 0.0 0.0 0.00 0.00 0.00 96 1011.9
20260906080234 66 192 0.0 0.0 0.00 0.00 0.00 96 1011.9
20260906075735 66 192 0.0 0.0 0.00 0.00 0.00 96 1012.0
20260906074732 66 192 0.0 0.0 0.00 0.00 0.00 96 1011.9
20260906074233 66 192 0.0 0.0 0.00 0.00 0.00 96 1012.0
20260906073238 66 192 0.0 0.0 0.00 0.00 0.00 96 1011.9
20260906072234 66 192 0.0 0.0 0.00 0.00 0.00 96 1011.8
20260906070732 66 192 0.0 0.0 0.00 0.00 0.00 96 1011.9
20260906070232 66 192 0.0 0.0 0.00 0.00 0.00 96 1011.9
20260906065231 67 192 0.0 0.0 0.00 0.00 0.00 96 1011.8
20260906064732 66 192 0.0 0.0 0.00 0.00 0.00 96 1011.8
20260906064230 67 192 0.0 0.0 0.00 0.00 0.00 96 1011.8
20260906063734 67 192 0.0 0.0 0.00 0.00 0.00 96 1011.8
20260906063231 67 192 0.0 0.0 0.00 0.00 0.00 96 1011.8
20260906062730 67 192 0.0 0.0 0.00 0.00 0.00 96 1011.9
20260906062230 67 192 0.0 0.0 0.00 0.00 0.00 96 1011.9
20260906061734 67 192 0.0 0.0 0.00 0.00 0.00 96 1011.9
20260906061230 67 192 0.0 0.0 0.00 0.00 0.00 96 1012.0
20260906060730 67 192 0.0 0.0 0.00 0.00 0.00 96 1012.0
20260906060233 67 192 0.0 0.0 0.00 0.00 0.00 96 1012.1
20260906055232 67 192 0.0 0.0 0.00 0.00 0.00 95 1012.1
20260906054729 67 192 0.0 0.0 0.00 0.00 0.00 95 1012.2
20260906054237 67 192 0.0 0.0 0.00 0.00 0.00 95 1012.1
20260906053733 67 192 0.0 0.0 0.00 0.00 0.00 95 1012.2
20260906053234 67 192 0.0 0.0 0.00 0.00 0.00 95 1012.2
20260906052732 67 192 0.0 0.0 0.00 0.00 0.00 95 1012.2
20260906051231 68 192 0.0 0.0 0.00 0.00 0.00 94 1012.3
20260906050731 68 192 0.0 0.0 0.00 0.00 0.00 94 1012.3
20260906050232 68 192 0.0 0.0 0.00 0.00 0.00 94 1012.4
20260906045231 68 192 0.0 0.0 0.00 0.00 0.00 94 1012.3
20260906044731 68 192 0.0 0.0 0.00 0.00 0.00 94 1012.4
20260906043730 68 192 0.0 0.0 0.00 0.00 0.00 94 1012.4
20260906042733 68 192 0.0 0.0 0.00 0.00 0.00 93 1012.4
20260906042236 68 192 0.0 0.0 0.00 0.00 0.00 93 1012.5
20260906041732 68 192 0.0 0.0 0.00 0.00 0.00 93 1012.4
20260906040732 68 192 0.0 0.0 0.00 0.00 0.00 93 1012.5
20260906040233 69 192 0.0 0.0 0.00 0.00 0.00 92 1012.5
20260906035732 69 192 0.0 0.0 0.00 0.00 0.00 93 1012.5
20260906035229 69 192 0.0 0.0 0.00 0.00 0.00 93 1012.5
20260906034731 69 192 0.0 0.0 0.00 0.00 0.00 92 1012.6
20260906034232 69 192 0.0 0.0 0.00 0.00 0.00 92 1012.6
20260906033234 69 192 0.0 0.0 0.00 0.00 0.00 93 1012.6
20260906031720 69 192 0.0 0.0 0.00 0.00 0.00 92 1012.5
20260906030713 69 192 0.0 0.0 0.00 0.00 0.00 92 1012.5
20260906030201 69 192 0.0 0.0 0.00 0.00 0.00 92 1012.4
20260906025203 70 192 0.0 0.0 0.00 0.00 0.00 92 1012.4
20260906024708 70 192 0.0 0.0 0.00 0.00 0.00 92 1012.5
20260906024205 70 192 0.0 0.0 0.00 0.00 0.00 92 1012.5
20260906023718 70 192 0.0 0.0 0.00 0.00 0.00 91 1012.5
20260906022707 70 192 0.0 0.0 0.00 0.00 0.00 91 1012.5
20260906022202 70 192 0.0 0.0 0.00 0.00 0.00 91 1012.5
20260906021709 70 192 0.0 0.0 0.00 0.00 0.00 90 1012.5
20260906021203 70 192 0.0 0.0 0.00 0.00 0.00 90 1012.4
20260906020702 70 192 0.0 0.0 0.00 0.00 0.00 90 1012.5
20260906020202 70 192 0.0 0.0 0.00 0.00 0.00 90 1012.6
20260906015201 71 192 0.0 0.0 0.00 0.00 0.00 90 1012.3
20260906014702 71 192 0.0 0.0 0.00 0.00 0.00 90 1012.2
20260906014202 71 192 0.0 0.0 0.00 0.00 0.00 90 1012.2
20260906013701 71 192 0.0 0.0 0.00 0.00 0.00 90 1012.1
20260906013159 71 192 0.0 0.0 0.00 0.00 0.00 90 1012.0
20260906012659 71 192 0.0 0.0 0.00 0.00 0.00 90 1012.0
20260906012158 71 192 0.0 0.0 0.00 0.00 0.00 90 1011.9
20260906011658 71 192 0.0 0.0 0.00 0.00 0.00 89 1011.9
20260906010651 72 192 0.0 0.0 0.00 0.00 0.00 89 1011.9
20260906010159 72 192 0.0 0.0 0.00 0.00 0.00 88 1011.9
20260906004645 73 192 0.0 0.0 0.00 0.00 0.00 87 1011.9
20260906003644 73 192 0.0 0.0 0.00 0.00 0.00 86 1011.8
20260906003143 73 192 0.0 0.0 0.00 0.00 0.00 86 1011.7
20260906002644 73 192 0.0 0.0 0.00 0.00 0.00 86 1011.7
20260906002143 74 192 0.0 0.0 0.00 0.00 0.00 85 1011.6
20260906001135 74 192 0.0 0.0 0.00 0.00 0.00 83 1011.2
20260906000641 74 192 0.0 0.0 0.00 0.00 0.00 83 1011.1
20260906000137 74 192 0.0 0.0 0.00 0.00 0.00 82 1011.1
20260905235700 75 192 0.0 0.0 0.00 0.00 0.00 83 1011.0
20260905235139 75 192 0.0 0.0 0.00 0.00 0.00 82 1011.1
20260905234740 75 192 0.0 0.0 0.00 0.00 0.00 81 1011.0
20260905233638 76 192 0.0 0.0 0.00 0.00 0.00 81 1011.0
20260905233139 76 192 0.0 0.0 0.00 0.00 0.00 79 1011.1
20260905232632 76 192 0.0 0.0 0.00 0.00 0.00 78 1011.0
20260905231633 76 192 0.0 0.0 0.00 0.00 0.00 78 1011.1
20260905231133 77 192 0.0 0.0 0.00 0.00 0.00 75 1011.1
20260905230635 77 192 0.0 0.0 0.00 0.00 0.00 74 1011.1
20260905230133 77 192 0.0 0.0 0.00 0.00 0.00 74 1011.2
20260905225130 77 192 0.0 0.0 0.00 0.00 0.00 74 1011.2
20260905224631 77 192 0.0 0.0 0.00 0.00 0.00 72 1011.1
20260905224140 77 192 0.0 0.0 0.00 0.00 0.00 73 1010.9
20260905222634 77 192 0.0 0.0 0.00 0.00 0.00 71 1010.9
20260905222137 78 192 0.0 0.0 0.00 0.00 0.00 71 1011.1
20260905221634 78 192 0.0 0.0 0.00 0.00 0.00 71 1011.1
20260905221132 78 192 0.0 0.0 0.00 0.00 0.00 70 1011.0
20260905220637 78 192 0.0 0.0 0.00 0.00 0.00 70 1011.1
20260905220138 78 192 0.0 0.0 0.00 0.00 0.00 71 1011.0
20260905215627 78 192 0.0 0.0 0.00 0.00 0.00 69 1011.0
20260905215131 78 193 0.0 0.0 0.00 0.00 0.00 70 1011.0
20260905214713 78 193 0.0 0.0 0.00 0.00 0.00 70 1011.0
20260905213623 78 189 0.0 0.0 0.00 0.00 0.00 71 1010.8
20260905212617 78 192 0.0 0.0 0.00 0.00 0.00 72 1010.8
20260905212117 78 192 0.0 0.0 0.00 0.00 0.00 71 1010.7
20260905211615 78 191 0.0 0.0 0.00 0.00 0.00 70 1010.5
20260905211111 78 190 0.0 0.0 0.00 0.00 0.00 74 1010.4
20260905210108 78 190 0.0 0.0 0.00 0.00 0.00 72 1010.2
20260905205105 78 195 0.0 0.0 0.00 0.00 0.00 74 1010.1
20260905204607 78 198 0.0 0.0 0.00 0.00 0.00 73 1010.1
20260905204106 78 196 0.0 0.0 0.00 0.00 0.00 74 1010.1
20260905203601 78 196 0.0 0.0 0.00 0.00 0.00 72 1010.1
20260905202559 78 196 0.0 0.0 0.00 0.00 0.00 74 1010.0
20260905202129 78 196 0.0 0.0 0.00 0.00 0.00 73 1010.3
20260905201555 78 196 0.0 0.0 0.00 0.00 0.00 72 1010.3
20260905201052 78 196 0.0 0.0 0.00 0.00 0.00 72 1010.3
20260905200558 79 199 0.0 0.0 0.00 0.00 0.00 71 1010.4
20260905200046 79 199 0.0 0.0 0.00 0.00 0.00 74 1010.4
20260905195547 79 201 0.0 0.0 0.00 0.00 0.00 73 1010.2
20260905195048 79 190 0.0 0.0 0.00 0.00 0.00 72 1010.4
20260905194043 79 198 0.0 0.0 0.00 0.00 0.00 72 1010.6
20260905193538 78 198 0.0 0.0 0.00 0.00 0.00 72 1010.9
20260905192537 78 198 0.0 0.0 0.00 0.00 0.00 74 1011.0
20260905191540 78 198 0.0 0.0 0.00 0.00 0.00 73 1011.1
20260905191036 78 198 0.0 0.0 0.00 0.00 0.00 73 1011.1
20260905190534 78 199 0.0 0.0 0.00 0.00 0.00 73 1011.0
20260905190036 79 199 0.0 0.0 0.00 0.00 0.00 73 1011.0
20260905185532 79 200 0.0 0.0 0.00 0.00 0.00 71 1011.0
20260905185032 79 200 0.0 0.0 0.00 0.00 0.00 72 1011.0
20260905184533 79 200 0.0 0.0 0.00 0.00 0.00 69 1011.1
20260905184031 79 200 0.0 0.0 0.00 0.00 0.00 71 1011.4
20260905183534 79 201 0.0 0.0 0.00 0.00 0.00 67 1011.4
20260905183032 78 202 0.0 0.0 0.00 0.00 0.00 68 1011.6
20260905182102 78 202 0.0 0.0 0.00 0.00 0.00 75 1011.6
20260905181522 78 203 0.0 0.0 0.00 0.00 0.00 72 1011.6
20260905180022 78 192 0.0 0.0 0.00 0.00 0.00 75 1011.6
20260905175516 78 192 0.0 0.0 0.00 0.00 0.00 77 1011.5
20260905174516 77 194 0.0 0.0 0.00 0.00 0.00 75 1011.8
20260905174015 77 196 0.0 0.0 0.00 0.00 0.00 75 1011.5
20260905173514 77 196 0.0 0.0 0.00 0.00 0.00 73 1011.6
20260905171506 78 195 0.0 0.0 0.00 0.00 0.00 75 1011.6
20260905170013 77 193 0.0 0.0 0.00 0.00 0.00 76 1011.7
20260905165505 77 192 0.0 0.0 0.00 0.00 0.00 76 1011.8
20260905164503 77 192 0.0 0.0 0.00 0.00 0.00 75 1011.8
20260905164009 77 192 0.0 0.0 0.00 0.00 0.00 74 1011.8
20260905162959 77 193 0.0 0.0 0.00 0.00 0.00 76 1012.1
20260905162453 77 197 0.0 0.0 0.00 0.00 0.00 73 1012.0
20260905161940 77 198 0.0 0.0 0.00 0.00 0.00 75 1011.9
20260905161434 77 196 0.0 0.0 0.00 0.00 0.00 74 1012.1
20260905160931 77 197 0.0 0.0 0.00 0.00 0.00 75 1012.2
20260905160432 77 202 0.0 0.0 0.00 0.00 0.00 76 1012.1